Vorticity
nan nan nan nan nan nan nan nan nan nan nan nan nan nan nan nan nan nan nan nan nan nan nan nan nan nan nan nan nan nan nan nan nan nan nan nan nan nan nan nan nan nan nan nan nan nan nan
nan 11 6 5 7 6 6 7 8 8 6 5 5 6 9 10 9 9 8 6 7 7 6 5 7 13 14 4 12 11 13 7 6 6 7 4 5 6 11 8 7 7 7 12 14 12 nan
nan 7 11 11 6 7 9 6 6 7 8 7 5 6 9 9 7 8 9 7 7 7 7 8 12 13 9 13 8 9 3 3 8 7 6 7 7 5 9 10 7 6 12 8 10 5 nan
nan 5 5 9 13 9 6 7 6 6 8 8 6 5 5 7 8 8 8 8 7 9 12 17 13 8 7 19 9 6 3 5 8 7 6 10 6 8 6 7 8 8 8 9 12 5 nan
nan 9 7 6 7 10 11 5 5 6 6 7 6 6 6 7 8 9 9 8 9 14 16 14 7 6 10 9 13 14 5 5 11 11 8 4 6 7 10 7 9 8 4 12 7 6 nan
nan 7 7 7 7 5 10 11 7 6 6 6 6 6 6 6 10 9 11 10 15 16 7 1 9 10 12 5 10 15 14 6 6 7 6 6 5 6 8 10 9 9 9 6 10 8 nan
nan 8 6 6 6 5 5 11 11 7 8 6 5 6 6 6 8 10 13 17 15 9 3 1 -3 2 5 10 11 9 11 10 5 4 8 7 6 7 6 7 11 11 9 8 8 8 nan
nan 10 10 7 6 6 6 6 11 11 7 7 8 7 5 7 10 14 9 6 8 7 11 13 5 6 1 6 13 12 8 6 7 6 5 6 10 10 10 7 8 9 9 10 4 6 nan
nan 8 10 10 7 6 6 7 6 9 11 8 7 7 7 7 11 14 9 9 4 7 12 16 18 14 20 8 6 11 6 7 8 7 3 -1 7 10 9 5 6 5 8 6 8 7 nan
nan 8 8 10 10 8 7 6 8 7 11 9 8 7 6 6 11 10 15 12 11 8 7 19 15 16 15 9 18 13 10 5 8 14 5 8 6 6 7 8 11 8 11 8 10 5 nan
nan 9 10 9 9 9 8 7 7 9 7 10 8 7 9 1 6 12 8 9 13 5 5 14 12 13 19 8 10 22 9 8 9 8 7 11 11 9 9 12 7 12 10 11 11 8 nan
nan 10 10 10 9 10 10 8 7 8 8 12 7 9 6 6 4 9 2 6 10 5 12 7 10 8 8 9 4 14 7 4 14 8 4 5 5 9 10 14 10 7 6 6 9 12 nan
nan 10 10 10 10 10 10 9 8 7 9 8 13 9 6 4 7 8 4 10 7 4 8 13 8 12 9 12 11 8 8 5 4 5 8 6 1 4 10 6 9 3 4 7 10 9 nan
nan 11 11 11 11 10 10 10 9 8 8 10 11 7 8 7 5 10 12 10 5 11 2 1 15 12 14 8 9 14 8 4 5 2 7 9 8 11 7 7 9 15 3 5 10 10 nan
nan 11 10 10 11 11 11 11 9 8 7 12 5 4 11 14 8 8 14 5 8 7 9 4 7 9 8 6 13 16 13 8 8 4 4 10 5 10 13 15 14 9 11 7 9 8 nan
nan 11 11 12 11 11 12 11 10 9 7 5 3 9 12 15 8 8 18 9 2 6 7 11 6 10 13 10 7 13 12 16 11 6 -0 7 8 8 12 6 8 11 14 7 6 7 nan
nan 14 11 12 13 12 12 12 11 9 9 3 1 8 19 11 8 12 16 15 6 2 4 9 11 7 14 17 10 5 -0 14 19 10 5 0 6 9 7 13 5 7 2 2 6 11 nan
nan 22 18 10 11 12 12 13 12 10 6 1 3 14 14 5 5 9 16 8 5 8 -2 3 10 9 13 15 17 10 6 7 18 13 9 3 6 8 4 3 12 13 10 3 6 8 nan
nan 11 10 11 11 12 13 13 13 12 -2 -7 4 16 16 6 3 7 12 13 7 8 1 2 4 7 7 12 17 17 12 15 16 10 9 7 6 7 7 2 10 14 8 5 3 9 nan
nan 11 12 13 12 12 13 14 14 12 -3 -10 5 8 11 15 16 13 7 17 11 7 4 3 5 6 5 8 9 15 13 16 17 6 12 14 5 5 3 4 5 6 8 10 3 0 nan
nan 14 13 13 12 12 13 13 15 15 -4 -10 6 8 16 18 16 10 9 9 10 9 12 5 5 6 3 4 9 10 15 14 11 16 13 12 10 10 6 9 9 5 9 9 6 1 nan
nan 17 16 14 13 12 13 15 16 15 -8 -12 9 12 13 12 18 11 8 8 12 9 4 1 7 10 3 -0 2 6 2 5 10 11 12 11 13 14 11 15 13 13 8 10 9 6 nan
nan 20 20 18 15 11 13 15 17 12 -15 -8 11 14 10 14 17 11 11 13 10 8 5 11 5 8 10 6 3 5 6 6 6 9 11 10 13 12 11 13 10 15 21 14 10 10 nan
nan 16 23 27 16 11 13 16 17 11 -14 -6 10 12 12 14 16 18 12 7 12 11 6 8 13 -0 9 10 10 9 11 13 14 12 7 8 12 9 15 11 9 10 19 21 11 6 nan
nan 25 31 27 13 13 15 18 20 12 -12 -7 10 7 11 16 13 15 20 9 3 16 15 2 10 12 9 8 6 9 7 12 15 16 19 10 5 7 14 6 7 12 12 18 14 7 nan
nan 32 24 20 17 14 15 16 22 11 -12 -7 10 8 11 16 15 14 16 14 8 12 13 14 9 12 6 7 13 13 8 11 12 7 15 17 10 8 7 11 11 13 16 7 5 10 nan
nan 31 19 19 19 17 17 19 17 8 -2 -9 13 12 9 10 15 15 12 15 13 5 10 12 10 7 7 5 8 13 11 11 11 7 9 9 17 16 4 6 8 20 20 9 2 13 nan
nan 34 27 20 18 14 19 23 11 -4 0 8 7 12 13 11 14 16 18 17 11 8 10 9 3 8 13 10 8 8 11 10 15 15 8 9 7 10 10 11 16 11 6 4 6 13 nan
nan nan nan nan nan nan nan nan nan nan nan nan nan nan nan nan nan nan nan nan nan nan nan nan nan nan nan nan nan nan nan nan nan nan nan nan nan nan nan nan nan nan nan nan nan nan nan
CAPE
24 23 19 17 22 20 14 21 15 10 8 7 0 0 0 3 20 8 0 0 0 0 0 0 0 0 0 0 0 0 0 0 0 0 0 0 0 0 0 0 2 0 10 108 41 63 182
46 32 29 29 32 19 10 21 24 17 14 12 0 0 7 4 5 12 2 0 0 0 0 0 0 0 0 0 0 0 0 0 0 0 0 0 0 0 0 0 6 6 160 491 230 358 565
24 37 53 32 25 30 26 21 21 21 10 14 15 3 6 4 4 8 7 0 0 0 0 0 0 0 0 0 0 0 0 0 0 0 0 0 0 0 0 0 0 9 225 550 550 543 503
31 40 33 48 38 29 23 26 20 22 26 19 17 14 0 0 4 1 0 0 0 0 0 0 1 0 0 0 0 0 0 0 0 0 0 0 0 0 0 0 3 44 259 136 591 551 182
28 32 41 55 36 42 29 26 22 20 27 22 18 13 3 0 6 0 0 0 0 0 0 0 0 0 0 0 0 0 0 0 0 0 0 0 0 0 0 0 0 44 70 105 226 197 174
25 27 52 57 52 58 57 25 26 21 22 23 19 14 12 0 7 0 0 0 0 0 1 1 0 0 0 0 0 0 0 0 0 0 0 0 0 0 0 0 0 44 51 87 104 139 228
53 47 48 52 56 58 49 57 29 23 25 19 17 15 14 0 7 0 0 1 0 0 0 0 0 0 0 0 0 0 0 0 0 0 0 0 0 0 0 0 0 4 37 59 78 71 54
35 58 49 60 47 50 37 68 68 30 28 21 21 12 15 15 3 0 2 1 0 0 0 0 0 0 0 0 0 0 0 0 0 0 0 0 0 0 0 0 6 13 43 26 45 10 10
30 33 57 52 64 52 41 42 54 56 35 32 20 16 13 8 14 6 5 0 0 0 3 0 0 0 0 0 0 0 0 0 0 0 0 0 0 0 0 0 20 33 35 28 27 8 1
63 51 43 76 87 75 64 59 22 39 52 40 26 23 15 9 5 4 2 0 0 0 1 0 0 0 0 0 0 0 0 0 0 0 0 0 0 0 0 0 0 11 20 2 8 25 61
74 60 52 58 74 72 61 50 40 35 20 51 35 30 14 16 26 12 1 0 0 1 0 0 0 0 0 0 0 0 0 0 0 0 0 0 0 0 0 0 0 16 0 10 18 48 48
82 86 82 80 61 61 63 58 43 26 24 9 51 41 27 26 28 4 0 2 0 19 0 0 0 0 0 0 0 0 0 0 0 0 0 0 0 0 0 0 0 0 0 1 36 73 81
75 70 73 78 74 65 76 71 59 30 29 58 27 59 56 36 8 3 8 122 36 0 0 0 0 0 0 0 0 0 0 0 0 0 0 0 0 0 0 0 0 0 38 91 108 118 109
84 82 76 77 72 77 76 68 62 53 37 62 52 16 57 51 23 50 35 180 0 0 0 0 0 0 0 0 0 0 0 0 0 0 0 0 0 0 0 0 4 0 55 114 54 95 91
76 80 78 75 88 74 83 86 63 63 48 49 76 41 20 69 60 87 131 84 0 0 0 0 0 0 0 0 0 0 0 0 0 0 0 0 0 0 0 0 0 2 15 30 56 12 137
96 82 81 69 68 75 70 84 81 61 62 78 76 88 24 31 138 22 55 0 0 0 0 0 0 0 0 0 0 0 0 0 0 0 0 0 0 0 0 0 0 1 15 32 79 59 51
79 83 85 81 66 67 71 66 84 80 57 79 160 48 40 1 125 31 25 0 0 5 0 0 0 0 0 0 0 0 0 0 0 0 0 0 0 2 9 6 18 4 9 7 66 61 61
4 58 88 69 85 87 79 78 64 90 43 128 55 35 95 65 17 30 43 0 0 0 14 0 0 17 18 0 0 0 0 0 0 0 0 0 0 10 5 0 2 70 59 41 80 56 66
42 13 35 73 76 67 101 81 75 65 66 142 46 40 113 167 6 11 21 29 11 15 13 0 0 12 26 23 0 0 0 0 0 0 0 0 0 16 2 0 0 2 0 4 28 16 17
77 75 77 96 83 111 127 128 86 58 88 105 21 26 40 89 14 0 10 74 34 25 0 0 0 20 19 25 3 1 0 0 0 0 0 4 3 0 2 0 8 1 0 10 43 80 0
86 99 89 101 117 139 151 178 135 54 76 58 44 87 8 19 51 0 3 10 41 46 1 2 2 1 23 36 7 18 0 0 0 0 0 13 8 0 0 0 2 0 0 9 21 3 10
111 103 77 80 132 153 155 154 103 56 69 44 4 72 116 63 18 10 0 23 47 53 0 0 0 0 34 56 34 53 2 7 30 3 0 10 13 10 4 0 0 0 0 0 0 0 23
197 204 178 95 109 154 124 91 82 60 55 53 34 50 110 39 40 51 31 1 13 86 28 0 0 0 14 29 42 25 0 0 0 11 37 26 27 10 2 1 7 0 0 0 0 20 52
289 270 260 156 96 132 106 73 81 54 48 65 25 67 95 89 94 28 4 0 0 30 80 23 4 0 2 19 39 47 0 0 0 14 28 41 48 32 15 0 54 0 0 13 9 23 35
238 272 259 130 74 108 96 84 98 47 53 86 61 71 68 118 47 30 25 20 3 21 82 50 18 0 32 9 1 0 0 0 0 1 42 60 70 46 129 9 0 0 0 0 9 6 25
97 257 237 64 75 77 66 47 43 43 57 56 84 55 77 114 60 37 61 40 27 34 109 52 61 32 76 45 54 6 0 0 1 2 0 0 4 152 0 41 82 0 0 0 0 15 54
91 192 135 87 55 51 65 41 37 41 65 29 44 110 150 54 75 116 109 60 50 75 85 77 54 52 82 119 100 28 0 4 0 0 0 0 0 52 79 76 22 0 0 0 7 122 13
47 66 56 48 43 53 21 41 18 48 32 29 58 97 249 118 90 100 103 111 92 154 139 39 120 46 41 68 37 41 93 11 32 9 20 41 55 25 51 127 26 0 0 0 65 4 0
82 67 56 57 48 27 37 15 23 54 23 3 3 27 92 136 94 10 18 0 14 116 135 100 0 0 5 13 40 4 156 30 22 18 3 37 11 104 18 43 68 0 9 0 5 2 0